This is the latest recevied weather packets stored in our database for station/object S50ME-11. If no packets are shown the sender has not sent any weather packets the latest 1 day(s).
| Time | Temp. | Humidity | Pressure | Rain* | Wind** | Luminosity | Snow |
|---|---|---|---|---|---|---|---|
| 1778088657 | 21.67° C | 44% | 1011.2 hPa | - | - | - | - |
| 1778087757 | 22.22° C | 43% | 1011.5 hPa | - | - | - | - |
| 1778085960 | 23.33° C | 42% | 1010.7 hPa | - | - | - | - |
| 1778082355 | 24.44° C | 42% | 1011.6 hPa | - | - | - | - |
| 1778081455 | 23.89° C | 42% | 1012.4 hPa | - | - | - | - |
| 1778078756 | 25.56° C | 41% | 1011.6 hPa | - | - | - | - |
| 1778078753 | 25.56° C | 41% | 1011.6 hPa | - | - | - | - |
| 1778076956 | 26.67° C | 41% | 1011.6 hPa | - | - | - | - |
| 1778076052 | 26.67° C | 41% | 1012.8 hPa | - | - | - | - |
| 1778075155 | 26.11° C | 41% | 1011.8 hPa | - | - | - | - |
| 1778075152 | 26.11° C | 41% | 1011.8 hPa | - | - | - | - |
| 1778074255 | 25.56° C | 42% | 1011.9 hPa | - | - | - | - |
| 1778073355 | 24.44° C | 42% | 1011.3 hPa | - | - | - | - |
| 1778073351 | 24.44° C | 42% | 1011.3 hPa | - | - | - | - |
| 1778072455 | 24.44° C | 42% | 1011.4 hPa | - | - | - | - |
| 1778071555 | 24.44° C | 42% | 1012.2 hPa | - | - | - | - |
| 1778070655 | 25° C | 42% | 1012.7 hPa | - | - | - | - |
| 1778067958 | 24.44° C | 42% | 1012.8 hPa | - | - | - | - |
| 1778067061 | 25° C | 42% | 1013 hPa | - | - | - | - |
| 1778065257 | 25° C | 42% | 1012.3 hPa | - | - | - | - |
| 1778064360 | 25° C | 42% | 1012.3 hPa | - | - | - | - |
| 1778063456 | 25.56° C | 42% | 1012.8 hPa | - | - | - | - |
| 1778062556 | 25° C | 42% | 1012.1 hPa | - | - | - | - |
| 1778061659 | 25.56° C | 42% | 1011.9 hPa | - | - | - | - |
| 1778061656 | 25.56° C | 42% | 1011.9 hPa | - | - | - | - |
* Rain since midnight (hover to see other rain measurements)
** Current wind speed in m/s (hover to see current wind gust speed)